This is the latest recevied weather packets stored in our database for station/object KB4RFE. If no packets are shown the sender has not sent any weather packets the latest 10 day(s).
| Time | Temp. | Humidity | Pressure | Rain* | Wind** | Luminosity | Snow |
|---|---|---|---|---|---|---|---|
| 1777922673 | 23.33° C | 56% | 1020.4 hPa | 0 mm | - | 808 W/m² | - |
| 1777922372 | 23.33° C | 54% | 1020.3 hPa | 0 mm | - | 754 W/m² | - |
| 1777922070 | 23.33° C | 57% | 1020.4 hPa | 0 mm | - | 823 W/m² | - |
| 1777921764 | 23.33° C | 55% | 1020.4 hPa | 0 mm | - | 831 W/m² | - |
| 1777921460 | 23.33° C | 58% | 1020.5 hPa | 0 mm | - | 837 W/m² | - |
| 1777921157 | 23.33° C | 53% | 1020.3 hPa | 0 mm | - | 846 W/m² | - |
| 1777920855 | 23.33° C | 54% | 1020.4 hPa | 0 mm | - | 856 W/m² | - |
| 1777920550 | 23.33° C | 51% | 1020.5 hPa | 0 mm | - | 864 W/m² | - |
| 1777920246 | 23.33° C | 54% | 1020.6 hPa | 0 mm | - | 874 W/m² | - |
| 1777919942 | 23.33° C | 51% | 1020.5 hPa | 0 mm | - | 880 W/m² | - |
| 1777919640 | 22.78° C | 55% | 1020.6 hPa | 0 mm | - | 885 W/m² | - |
| 1777919337 | 22.78° C | 52% | 1020.7 hPa | 0 mm | - | 895 W/m² | - |
| 1777919034 | 23.33° C | 52% | 1020.6 hPa | 0 mm | - | 902 W/m² | - |
| 1777918731 | 23.33° C | 56% | 1020.5 hPa | 0 mm | - | 908 W/m² | - |
| 1777918428 | 23.33° C | 54% | 1020.6 hPa | 0 mm | - | 919 W/m² | - |
| 1777918127 | 22.78° C | 57% | 1020.5 hPa | 0 mm | - | 923 W/m² | - |
| 1777917825 | 23.33° C | 54% | 1020.7 hPa | 0 mm | - | 929 W/m² | - |
| 1777917523 | 23.33° C | 52% | 1020.7 hPa | 0 mm | - | 936 W/m² | - |
| 1777917219 | 23.33° C | 50% | 1020.7 hPa | 0 mm | - | 919 W/m² | - |
| 1777916918 | 23.89° C | 56% | 1020.5 hPa | 0 mm | - | 944 W/m² | - |
| 1777916615 | 23.33° C | 57% | 1020.5 hPa | 0 mm | - | 946 W/m² | - |
| 1777916312 | 23.33° C | 56% | 1020.5 hPa | 0 mm | - | 939 W/m² | - |
| 1777916009 | 23.33° C | 53% | 1020.6 hPa | 0 mm | - | 937 W/m² | - |
| 1777915706 | 23.33° C | 53% | 1020.8 hPa | 0 mm | - | 908 W/m² | - |
| 1777915402 | 22.78° C | 56% | 1020.8 hPa | 0 mm | - | 934 W/m² | - |
* Rain latest hour (hover to see other rain measurements)
** Current wind speed in m/s (hover to see current wind gust speed)